Weather History for Linton Municipal Airport, ND

Change the Weather History Date:

Monday, March 3, 2014

  Actual Average (KBIS) Record (KBIS)
Temperature  
Mean Temperature 5 °F 24 °F  
Max Temperature 10 °F 34 °F 61 °F (1905)
Min Temperature 0 °F 14 °F -20 °F (1917)
Degree Days  
Heating Degree Days 60 41  
Month to date heating degree days 124  
Since 1 July heating degree days 6555  
Cooling Degree Days 0 0  
Month to date cooling degree days 0  
Year to date cooling degree days 0  
Moisture  
Dew Point -4 °F    
Average Humidity 68    
Maximum Humidity 85    
Minimum Humidity 56    
Precipitation  
Precipitation 0.00 in 0.02 in 1.24 in (1966)
Month to date precipitation 0.07  
Year to date precipitation 1.01  
Snow  
Snow 0.00 in 0.30 in 15.50 in (1966)
Month to date snowfall 0.9  
Since 1 July snowfall 38.4  
Snow Depth -    
Sea Level Pressure  
Sea Level Pressure 30.14 in    
Wind  
Wind Speed 10 mph (SE)    
Max Wind Speed 18 mph    
Max Gust Speed 26 mph    
Visibility 10 miles    
Events      
T = Trace of Precipitation, MM = Missing Value Source: NWS Daily Summary

Daily Weather History Graph

Daily Weather History Graph

Search for Another Location

Airport:

Trip Planner

Search our weather history database for the weather conditions in past years. The results will help you decide how hot, cold, wet, or windy it might be!

Date:

Astronomy

Mar. 03, 2014 Rise Set
Actual Time 7:16 AM CST 6:30 PM CST
Civil Twilight 6:46 AM CST 7:00 PM CST
Nautical Twilight 6:11 AM CST 7:34 PM CST
Astronomical Twilight 5:36 AM CST 8:09 PM CST
Moon 8:15 AM CST (3/3) 9:47 PM CST (3/3)
Length of Visible Light 12h 13m
Length of Day
11h 13m
Waxing Crescent, 8% of the Moon is Illuminated
Mar 3
Waxing Crescent
Mar 8
First Quarter
Mar 16
Full
Mar 23
Last Quarter
Mar 30
New

Hourly Weather History & Observations

Time (CST) Temp. Windchill Dew Point Humidity Pressure Visibility Wind Dir Wind Speed Gust Speed Precip Events Conditions
12:15 AM 3.2 °F -10.3 °F -4.0 °F 72% 30.38 in 10.0 mi SSE 8.1 mph - N/A   Overcast
12:35 AM 3.2 °F -11.3 °F -4.0 °F 72% 30.37 in 10.0 mi SSE 9.2 mph - N/A   Overcast
12:55 AM 3.2 °F -10.3 °F -4.0 °F 72% 30.37 in 10.0 mi SSE 8.1 mph - N/A   Mostly Cloudy
1:15 AM 1.4 °F -12.5 °F -7.6 °F 66% 30.35 in 10.0 mi SSE 8.1 mph - N/A   Partly Cloudy
1:35 AM 1.4 °F -12.5 °F -7.6 °F 66% 30.35 in - SSE 8.1 mph - N/A   Partly Cloudy
1:55 AM 1.4 °F -12.5 °F -7.6 °F 66% 30.35 in 10.0 mi South 8.1 mph - N/A   Mostly Cloudy
2:15 AM 1.4 °F -13.5 °F -5.8 °F 72% 30.34 in 10.0 mi SSE 9.2 mph - N/A   Overcast
2:35 AM 1.4 °F -13.5 °F -7.6 °F 66% 30.33 in 10.0 mi South 9.2 mph - N/A   Overcast
2:55 AM 1.4 °F -12.5 °F -5.8 °F 72% 30.32 in 10.0 mi SSE 8.1 mph - N/A   Mostly Cloudy
3:15 AM 1.4 °F -12.5 °F -7.6 °F 66% 30.31 in 10.0 mi SE 8.1 mph - N/A   Mostly Cloudy
3:35 AM 1.4 °F -12.5 °F -7.6 °F 66% 30.30 in 10.0 mi SE 8.1 mph - N/A   Overcast
3:55 AM 1.4 °F -13.5 °F -7.6 °F 66% 30.29 in 10.0 mi SSE 9.2 mph - N/A   Mostly Cloudy
4:15 AM -0.4 °F -16.7 °F -7.6 °F 72% 30.26 in 10.0 mi SSE 10.4 mph - N/A   Overcast
4:35 AM -0.4 °F -19.9 °F -7.6 °F 72% 30.25 in 10.0 mi SE 15.0 mph 19.6 mph N/A   Overcast
4:55 AM -0.4 °F -15.7 °F -7.6 °F 72% 30.25 in 10.0 mi SE 9.2 mph - N/A   Partly Cloudy
5:15 AM -0.4 °F -17.6 °F -7.6 °F 72% 30.24 in 10.0 mi SE 11.5 mph - N/A   Clear
5:35 AM -0.4 °F -18.4 °F -7.6 °F 72% 30.24 in 10.0 mi SE 12.7 mph - N/A   Scattered Clouds
5:55 AM 1.4 °F -15.3 °F -7.6 °F 66% 30.23 in 10.0 mi SE 11.5 mph - N/A   Overcast
6:15 AM 1.4 °F -18.2 °F -7.6 °F 66% 30.22 in 10.0 mi SSE 16.1 mph 20.7 mph N/A   Overcast
6:35 AM 1.4 °F -19.4 °F -7.6 °F 66% 30.21 in 10.0 mi SE 18.4 mph 23.0 mph N/A   Overcast
6:55 AM 1.4 °F -17.6 °F -7.6 °F 66% 30.21 in 10.0 mi SE 15.0 mph 21.9 mph N/A   Overcast
7:15 AM 1.4 °F -17.6 °F -7.6 °F 66% 30.20 in 10.0 mi SE 15.0 mph 20.7 mph N/A   Overcast
7:35 AM 1.4 °F -17.6 °F -7.6 °F 66% 30.20 in 10.0 mi SE 15.0 mph 23.0 mph N/A   Overcast
7:55 AM 1.4 °F -18.2 °F -7.6 °F 66% 30.19 in 10.0 mi SE 16.1 mph 19.6 mph N/A   Overcast
8:15 AM 1.4 °F -17.6 °F -9.4 °F 61% 30.18 in 10.0 mi SE 15.0 mph 23.0 mph N/A   Overcast
8:35 AM 1.4 °F -19.4 °F -9.4 °F 61% 30.17 in 10.0 mi SE 18.4 mph 24.2 mph N/A   Overcast
8:55 AM 1.4 °F -18.8 °F -9.4 °F 61% 30.15 in 10.0 mi SE 17.3 mph 25.3 mph N/A   Overcast
9:15 AM 1.4 °F -18.8 °F -9.4 °F 61% 30.14 in 10.0 mi SE 17.3 mph 26.5 mph N/A   Mostly Cloudy
9:35 AM 3.2 °F -17.1 °F -9.4 °F 56% 30.13 in 10.0 mi SE 18.4 mph 25.3 mph N/A   Mostly Cloudy
9:55 AM 3.2 °F -16.5 °F -9.4 °F 56% 30.13 in 10.0 mi SE 17.3 mph 25.3 mph N/A   Scattered Clouds
10:15 AM 3.2 °F -15.9 °F -7.6 °F 61% 30.13 in 10.0 mi ESE 16.1 mph 21.9 mph N/A   Mostly Cloudy
10:35 AM 5.0 °F -11.6 °F -7.6 °F 56% 30.14 in 10.0 mi SE 12.7 mph 19.6 mph N/A   Mostly Cloudy
10:55 AM 5.0 °F -11.6 °F -7.6 °F 56% 30.14 in 10.0 mi SE 12.7 mph 20.7 mph N/A   Mostly Cloudy
11:15 AM 5.0 °F -13.6 °F -5.8 °F 61% 30.12 in 10.0 mi SE 16.1 mph 21.9 mph N/A   Partly Cloudy
11:35 AM 5.0 °F -13.6 °F -4.0 °F 66% 30.11 in 10.0 mi SE 16.1 mph 23.0 mph N/A   Mostly Cloudy
11:55 AM 5.0 °F -13.6 °F -4.0 °F 66% 30.09 in 10.0 mi SE 16.1 mph 21.9 mph N/A   Mostly Cloudy
12:15 PM 6.8 °F -10.7 °F -4.0 °F 61% 30.09 in 10.0 mi SE 15.0 mph - N/A   Partly Cloudy
12:35 PM 6.8 °F -11.3 °F -2.2 °F 67% 30.09 in 10.0 mi SE 16.1 mph 21.9 mph N/A   Scattered Clouds
12:55 PM 6.8 °F -10.7 °F -2.2 °F 67% 30.07 in 10.0 mi SE 15.0 mph 21.9 mph N/A   Mostly Cloudy
1:15 PM 6.8 °F -12.4 °F -2.2 °F 67% 30.04 in 10.0 mi SE 18.4 mph 24.2 mph N/A   Partly Cloudy
1:35 PM 6.8 °F -10.0 °F -2.2 °F 67% 30.06 in 10.0 mi SE 13.8 mph - N/A   Scattered Clouds
1:55 PM 6.8 °F -8.6 °F -2.2 °F 67% 30.07 in 10.0 mi SE 11.5 mph 19.6 mph N/A   Scattered Clouds
2:15 PM 8.6 °F -6.3 °F -0.4 °F 67% 30.06 in 10.0 mi ESE 11.5 mph - N/A   Partly Cloudy
2:35 PM 8.6 °F -6.3 °F -0.4 °F 67% 30.05 in 10.0 mi ESE 11.5 mph - N/A   Scattered Clouds
2:55 PM 8.6 °F -6.3 °F -0.4 °F 67% 30.04 in 10.0 mi SE 11.5 mph - N/A   Mostly Cloudy
3:15 PM 10.4 °F -2.4 °F -0.4 °F 62% 30.04 in 10.0 mi SE 9.2 mph - N/A   Partly Cloudy
3:35 PM 8.6 °F -5.5 °F -0.4 °F 67% 30.04 in 10.0 mi SE 10.4 mph - N/A   Clear
3:55 PM 8.6 °F -5.5 °F -0.4 °F 67% 30.04 in 10.0 mi SE 10.4 mph - N/A   Mostly Cloudy
4:15 PM 10.4 °F -3.3 °F -0.4 °F 62% 30.04 in 10.0 mi SE 10.4 mph - N/A   Overcast
4:35 PM 10.4 °F -4.8 °F -0.4 °F 62% 30.03 in 10.0 mi SE 12.7 mph - N/A   Mostly Cloudy
4:55 PM 10.4 °F -0.4 °F -0.4 °F 62% 30.05 in 10.0 mi SE 6.9 mph - N/A   Overcast
5:15 PM 10.4 °F -1.5 °F -0.4 °F 62% 30.04 in 10.0 mi SE 8.1 mph - N/A   Mostly Cloudy
5:35 PM 8.6 °F -4.7 °F -0.4 °F 67% 30.04 in 10.0 mi SE 9.2 mph - N/A   Mostly Cloudy
5:55 PM 8.6 °F -4.7 °F -0.4 °F 67% 30.03 in 10.0 mi ESE 9.2 mph - N/A   Overcast
6:15 PM 8.6 °F -4.7 °F 1.4 °F 73% 30.03 in 10.0 mi ESE 9.2 mph - N/A   Overcast
6:35 PM 8.6 °F -1.3 °F 1.4 °F 73% 30.03 in 10.0 mi SE 5.8 mph - N/A   Overcast
6:55 PM 8.6 °F -1.3 °F 1.4 °F 73% 30.04 in 10.0 mi SE 5.8 mph - N/A   Overcast
7:15 PM 8.6 °F -1.3 °F 1.4 °F 73% 30.05 in 10.0 mi SE 5.8 mph - N/A   Overcast
7:35 PM 8.6 °F 0.1 °F 1.4 °F 73% 30.05 in 10.0 mi SE 4.6 mph - N/A   Overcast
7:55 PM 8.6 °F -2.6 °F 1.4 °F 73% 30.05 in 10.0 mi SE 6.9 mph - N/A   Mostly Cloudy
8:15 PM 10.4 °F 2.2 °F 1.4 °F 67% 30.07 in 10.0 mi ESE 4.6 mph - N/A   Mostly Cloudy
8:35 PM 8.6 °F 0.1 °F 1.4 °F 73% 30.05 in 10.0 mi East 4.6 mph - N/A   Mostly Cloudy
8:55 PM 8.6 °F -2.6 °F 1.4 °F 73% 30.05 in 10.0 mi ESE 6.9 mph - N/A   Overcast
9:15 PM 8.6 °F -1.3 °F 1.4 °F 73% 30.04 in 10.0 mi East 5.8 mph - N/A   Overcast
9:35 PM 8.6 °F -1.3 °F 1.4 °F 73% 30.05 in 10.0 mi East 5.8 mph - N/A   Overcast
9:55 PM 8.6 °F -1.3 °F 1.4 °F 73% 30.04 in 10.0 mi East 5.8 mph - N/A   Mostly Cloudy
10:15 PM 8.6 °F 0.1 °F 1.4 °F 73% 30.05 in 10.0 mi East 4.6 mph - N/A   Overcast
10:35 PM 8.6 °F 0.1 °F 1.4 °F 73% 30.04 in 10.0 mi East 4.6 mph - N/A   Mostly Cloudy
10:55 PM 6.8 °F -2.0 °F 1.4 °F 79% 30.04 in 10.0 mi ESE 4.6 mph - N/A   Clear
11:15 PM 6.8 °F -0.1 °F 1.4 °F 79% 30.04 in 10.0 mi East 3.5 mph - N/A   Clear
11:35 PM 6.8 °F - 1.4 °F 79% 30.04 in 10.0 mi Calm Calm - N/A   Clear
11:55 PM 5.0 °F -2.1 °F 1.4 °F 85% 30.05 in 10.0 mi East 3.5 mph - N/A   Clear